Previsão horária em Plichta

Hoje, 2 Março, Terça-feira

Tempo Temperatura Precipitação Vento Pressão Humidade
00:00 0°C° 0 mm 4 m/s 763 mmHg 92%
01:00 0°C° 0 mm 4 m/s 763 mmHg 93%
02:00 0°C° 0 mm 4 m/s 762 mmHg 92%
03:00 -1°C° 0 mm 4 m/s 762 mmHg 91%
04:00 -1°C° 0 mm 4 m/s 761 mmHg 91%
05:00 -1°C° 0 mm 4 m/s 761 mmHg 91%
06:00 -1°C° 0 mm 4 m/s 762 mmHg 91%
07:00 -1°C° 0 mm 4 m/s 762 mmHg 91%
08:00 0°C° 0 mm 4 m/s 762 mmHg 85%
09:00 +3°C° 0 mm 4 m/s 762 mmHg 79%
10:00 +3°C° 0 mm 5 m/s 762 mmHg 72%
11:00 +5°C° 0 mm 5 m/s 762 mmHg 70%
12:00 +6°C° 0 mm 5 m/s 762 mmHg 68%
13:00 +7°C° 0 mm 5 m/s 762 mmHg 65%
14:00 +6°C° 0 mm 4 m/s 762 mmHg 68%
15:00 +6°C° 0 mm 4 m/s 762 mmHg 71%
16:00 +5°C° 0 mm 4 m/s 762 mmHg 74%
17:00 +4°C° 0 mm 3 m/s 762 mmHg 80%
18:00 +3°C° 0 mm 3 m/s 762 mmHg 86%
19:00 +2°C° 0 mm 2 m/s 763 mmHg 93%
20:00 +2°C° 0 mm 2 m/s 763 mmHg 93%
21:00 +2°C° 0 mm 1 m/s 763 mmHg 94%
22:00 +2°C° 0 mm 1 m/s 763 mmHg 94%
23:00 +2°C° 0 mm 1 m/s 763 mmHg 93%

Amanhã, 3 Março, Quarta-feira

Tempo Temperatura Precipitação Vento Pressão Humidade
00:00 +1°C° 0 mm 0 m/s 763 mmHg 92%
01:00 +1°C° 0 mm 0 m/s 764 mmHg 91%
02:00 +1°C° 0 mm 0 m/s 763 mmHg 90%
03:00 +2°C° 0 mm 1 m/s 763 mmHg 90%
04:00 +2°C° 0 mm 1 m/s 762 mmHg 89%
05:00 +2°C° 0 mm 1 m/s 762 mmHg 89%
06:00 +2°C° 0 mm 1 m/s 762 mmHg 89%
07:00 +2°C° 0 mm 1 m/s 762 mmHg 90%
08:00 +2°C° 0 mm 2 m/s 761 mmHg 84%
09:00 +4°C° 0 mm 2 m/s 761 mmHg 79%
10:00 +4°C° 0 mm 3 m/s 761 mmHg 74%
11:00 +5°C° 0 mm 3 m/s 760 mmHg 69%
12:00 +7°C° 0 mm 3 m/s 760 mmHg 64%
13:00 +8°C° 0 mm 3 m/s 759 mmHg 59%
14:00 +8°C° 0 mm 3 m/s 758 mmHg 61%
15:00 +8°C° 0 mm 3 m/s 757 mmHg 62%
16:00 +7°C° 0 mm 3 m/s 756 mmHg 63%
17:00 +5°C° 0 mm 3 m/s 756 mmHg 69%
18:00 +4°C° 0 mm 3 m/s 755 mmHg 75%
19:00 +3°C° 0 mm 3 m/s 755 mmHg 81%
20:00 +3°C° 0 mm 3 m/s 754 mmHg 84%
21:00 +3°C° 0 mm 3 m/s 753 mmHg 86%
22:00 +3°C° 0 mm 4 m/s 752 mmHg 88%
23:00 +1°C° 0 mm 4 m/s 752 mmHg 90%

Depois de amanhã, 4 Março, Quinta-feira

Tempo Temperatura Precipitação Vento Pressão Humidade
00:00 +1°C° 0 mm 4 m/s 751 mmHg 91%
01:00 +1°C° 0 mm 4 m/s 751 mmHg 92%
02:00 +1°C° 0 mm 4 m/s 750 mmHg 93%
03:00 +1°C° 0 mm 4 m/s 749 mmHg 94%
04:00 +1°C° 0 mm 5 m/s 749 mmHg 95%
05:00 +1°C° 0 mm 4 m/s 749 mmHg 94%
06:00 +1°C° 0 mm 4 m/s 748 mmHg 93%
07:00 +1°C° 0 mm 4 m/s 748 mmHg 92%
08:00 +1°C° 0 mm 4 m/s 748 mmHg 88%
09:00 +2°C° 0 mm 5 m/s 748 mmHg 84%
10:00 +2°C° 0 mm 5 m/s 748 mmHg 81%
11:00 +3°C° 0 mm 4 m/s 748 mmHg 81%
12:00 +3°C° 0 mm 4 m/s 748 mmHg 82%
13:00 +1°C° 0 mm 4 m/s 748 mmHg 83%
14:00 +1°C° 0.1 mm 4 m/s 748 mmHg 85%
15:00 +1°C° 0.1 mm 4 m/s 747 mmHg 87%
16:00 0°C° 0.1 mm 4 m/s 747 mmHg 89%
17:00 -1°C° 0.1 mm 4 m/s 747 mmHg 90%
18:00 -1°C° 0.1 mm 4 m/s 748 mmHg 90%
19:00 -2°C° 0.1 mm 4 m/s 748 mmHg 90%
20:00 -2°C° 0.1 mm 4 m/s 748 mmHg 87%
21:00 -2°C° 0.1 mm 3 m/s 748 mmHg 84%
22:00 -2°C° 0.1 mm 3 m/s 749 mmHg 81%
23:00 -2°C° 0 mm 3 m/s 749 mmHg 81%

5 Março, Sexta-feira

Tempo Temperatura Precipitação Vento Pressão Humidade
00:00 -2°C° 0 mm 3 m/s 749 mmHg 80%
01:00 -2°C° 0 mm 3 m/s 749 mmHg 80%
02:00 -4°C° 0 mm 3 m/s 749 mmHg 78%
03:00 -4°C° 0 mm 3 m/s 750 mmHg 77%
04:00 -3°C° 0 mm 2 m/s 750 mmHg 75%
05:00 -3°C° 0 mm 2 m/s 750 mmHg 72%
06:00 -4°C° 0 mm 2 m/s 751 mmHg 69%
07:00 -4°C° 0 mm 2 m/s 751 mmHg 66%
08:00 -2°C° 0 mm 2 m/s 752 mmHg 61%
09:00 -1°C° 0 mm 2 m/s 752 mmHg 56%
10:00 +1°C° 0 mm 2 m/s 752 mmHg 51%
11:00 +2°C° 0.1 mm 2 m/s 752 mmHg 50%
12:00 +2°C° 0.1 mm 2 m/s 753 mmHg 50%
13:00 +2°C° 0.1 mm 2 m/s 753 mmHg 49%
14:00 +2°C° 0.2 mm 2 m/s 753 mmHg 51%
15:00 +2°C° 0.2 mm 2 m/s 753 mmHg 53%
16:00 +2°C° 0.2 mm 2 m/s 753 mmHg 55%
17:00 +1°C° 0.1 mm 2 m/s 754 mmHg 61%
18:00 -1°C° 0.1 mm 2 m/s 754 mmHg 68%
19:00 -2°C° 0.1 mm 2 m/s 755 mmHg 75%
20:00 -3°C° 0.4 mm 2 m/s 755 mmHg 78%
21:00 -3°C° 0.4 mm 2 m/s 756 mmHg 81%
22:00 -3°C° 0.4 mm 2 m/s 756 mmHg 84%
23:00 -4°C° 0 mm 2 m/s 757 mmHg 83%

6 Março, Sábado

Tempo Temperatura Precipitação Vento Pressão Humidade
00:00 -4°C° 0 mm 2 m/s 757 mmHg 81%
01:00 -5°C° 0 mm 3 m/s 757 mmHg 80%
02:00 -5°C° 0 mm 3 m/s 758 mmHg 79%
03:00 -5°C° 0 mm 3 m/s 758 mmHg 78%
04:00 -5°C° 0 mm 3 m/s 758 mmHg 77%
05:00 -5°C° 0 mm 3 m/s 759 mmHg 77%
06:00 -5°C° 0 mm 3 m/s 759 mmHg 76%
07:00 -4°C° 0 mm 3 m/s 760 mmHg 76%
08:00 -2°C° 0 mm 3 m/s 760 mmHg 68%
09:00 -2°C° 0 mm 4 m/s 760 mmHg 60%
10:00 -1°C° 0 mm 4 m/s 760 mmHg 52%
11:00 -1°C° 0 mm 4 m/s 760 mmHg 51%
12:00 -1°C° 0 mm 4 m/s 760 mmHg 49%
13:00 0°C° 0 mm 5 m/s 760 mmHg 48%
14:00 0°C° 0 mm 4 m/s 760 mmHg 49%
15:00 0°C° 0 mm 4 m/s 759 mmHg 50%
16:00 0°C° 0 mm 4 m/s 759 mmHg 51%
17:00 -1°C° 0 mm 4 m/s 759 mmHg 55%
18:00 -2°C° 0 mm 4 m/s 758 mmHg 58%
19:00 -3°C° 0 mm 4 m/s 758 mmHg 62%
20:00 -4°C° 0 mm 5 m/s 758 mmHg 64%
21:00 -4°C° 0 mm 5 m/s 758 mmHg 66%
22:00 -4°C° 0 mm 6 m/s 758 mmHg 69%
23:00 -3°C° 0 mm 6 m/s 757 mmHg 75%

7 Março, Domingo

Tempo Temperatura Precipitação Vento Pressão Humidade
00:00 -3°C° 0 mm 6 m/s 757 mmHg 81%
01:00 -2°C° 0 mm 6 m/s 757 mmHg 87%
02:00 -2°C° 0 mm 6 m/s 756 mmHg 88%
03:00 -2°C° 0 mm 7 m/s 756 mmHg 88%
04:00 -2°C° 0 mm 7 m/s 755 mmHg 89%
05:00 -2°C° 0 mm 7 m/s 755 mmHg 90%
06:00 -2°C° 0 mm 7 m/s 755 mmHg 92%
07:00 -2°C° 0 mm 7 m/s 755 mmHg 93%
08:00 -2°C° 0.1 mm 7 m/s 754 mmHg 91%
09:00 -2°C° 0.1 mm 7 m/s 754 mmHg 89%
10:00 -2°C° 0.1 mm 7 m/s 754 mmHg 87%
11:00 -2°C° 0 mm 7 m/s 754 mmHg 84%
12:00 -1°C° 0 mm 8 m/s 753 mmHg 81%
13:00 -1°C° 0 mm 8 m/s 753 mmHg 78%
14:00 -2°C° 0.1 mm 8 m/s 752 mmHg 84%
15:00 -2°C° 0.1 mm 8 m/s 752 mmHg 90%
16:00 -2°C° 0.1 mm 8 m/s 751 mmHg 95%
17:00 -2°C° 0.4 mm 8 m/s 750 mmHg 96%
18:00 -1°C° 0.4 mm 8 m/s 750 mmHg 96%
19:00 -1°C° 0.4 mm 8 m/s 749 mmHg 96%
20:00 -1°C° 0.3 mm 7 m/s 749 mmHg 95%
21:00 -1°C° 0.3 mm 7 m/s 748 mmHg 95%
22:00 0°C° 0.3 mm 7 m/s 748 mmHg 94%
23:00 0°C° 0.5 mm 7 m/s 748 mmHg 95%
Mostrar mais

Necessitamos do seu Consentimento

A Meteoprog e os seus Fornecedores de Serviços podem armazenar e aceder a dados pessoais como cookies, identificadores do dispositivo ou outras tecnologias semelhantes existentes no seu dispositivo e processar estes dados para personalizar conteúdos e anúncios, assim como funcionalidades nas redes sociais e análise de tráfego.

  • Armazenar e/ou aceder a informações no seu dispositivo

    Os cookies, identificadores do dispositivo ou outras informações podem ser armazenados ou acedidos no seu dispositivo, para os fins acima indicados.

  • Anúncios e conteúdos personalizados, medição de anúncios e conteúdos, dados sobre o público-alvo e desenvolvimento de produtos

    Os anúncios e os conteúdos podem ser personalizados com base num perfil. Podem ser adicionados dados adicionais para uma maior personalização dos anúncios e dos conteúdos. A eficácia dos anúncios e dos conteúdos pode ser medida. Podem ser obtidas informações sobre o público que visualizou os anúncios e os conteúdos. Estes dados podem ser usados para desenvolver ou melhorar sistemas, softwares ou a experiência do utilizador.

Ao clicar em "Eu concordo”, permitirá o uso de cookies, identificadores do dispositivo e web beacons mencionados ou outras tecnologias semelhantes. As configurações do navegador do seu dispositivo podem ser alteradas.

Para certos fins, podem ser invocados interesses legítimos ao invés de consentimento. Pode ler mais informação sobre este assunto na nossa Política de Privacidade e Cookies.